Regional Weather Roundup
Issued by NWS Tiyan, Guam

Current Version | Previous Version | Text Only | Print | Product List | Glossary On
Versions: 1 2 3 4 5 6 7 8 9 10 11 12 13 14 15 16 17 18 19 20 21 22 23 24 25 26 27 28 29 30 31 32 33 34 35 36 37 38 39 40 41 42 43 44 45 46 47 48 49 50
000
ASGM40 PGUM 300512
RWRGUM
WEATHER ROUNDUP FOR THE MARIANAS
NATIONAL WEATHER SERVICE TIYAN GU
300 PM CHST WED JUL 30 2014

GUZ001>004-300600-
MARIANA ISLANDS-

CITY           SKY/WX    TMP DP  RH WIND       PRES   REMARKS
GUAM AIRPORT   RAIN      75  75 100 SW17G32   29.71R FOG
ANDERSEN AFB   HVY RAIN  75  73  94 SW21G30   29.68R VSB 1/4
ROTA AIRPORT   LGT RAIN  75  75 100 S25G39    29.60R
TINIAN AP      PTSUNNY   81  81 100 E13       29.73S HX  91
SAIPAN AP      MOSUNNY   84  75  74 SE18G24   29.76S HX  92

$$




USA.gov is the U.S. government's official web portal to all federal, state and local government web resources and services.